When you browse on this site, cookies collect data to enhance your experience and personalize the content and advertising you see.
Visit our Privacy Policy to learn more. By continuing to use the site, you agree to this use of cookies and data.
  • En Estados Unidos
  • Lista de países
  • Para 7 días
  • Temperatura del agua
  • Mapa Satelital
  • El tiempo en el mapa
  • Informadores
  • user-avatar
    Iniciar sesión

    Tiempo cada hora Fier

    Hoy, 13 Diciembre, Jueves

    Tiempo Temperatura Precipitaciones Viento Presión Humedad
    00:00 +4°C° 0 mm 3 mps 764 mmHg 41%
    01:00 +4°C° 0 mm 3 mps 763 mmHg 41%
    02:00 +4°C° 0 mm 3 mps 763 mmHg 41%
    03:00 +5°C° 0 mm 4 mps 763 mmHg 41%
    04:00 +5°C° 0 mm 4 mps 762 mmHg 41%
    05:00 +5°C° 0.1 mm 4 mps 762 mmHg 43%
    06:00 +5°C° 0.1 mm 4 mps 762 mmHg 45%
    07:00 +5°C° 0.1 mm 4 mps 762 mmHg 47%
    08:00 +5°C° 0.1 mm 4 mps 761 mmHg 52%
    09:00 +6°C° 0.1 mm 4 mps 761 mmHg 57%
    10:00 +6°C° 0.1 mm 4 mps 761 mmHg 62%
    11:00 +6°C° 0 mm 4 mps 761 mmHg 63%
    12:00 +7°C° 0 mm 4 mps 761 mmHg 65%
    13:00 +8°C° 0 mm 4 mps 760 mmHg 65%
    14:00 +7°C° 0 mm 4 mps 760 mmHg 68%
    15:00 +7°C° 0 mm 4 mps 760 mmHg 71%
    16:00 +6°C° 0 mm 4 mps 760 mmHg 74%
    17:00 +6°C° 0 mm 5 mps 760 mmHg 75%
    18:00 +5°C° 0 mm 5 mps 759 mmHg 76%
    19:00 +5°C° 0 mm 5 mps 759 mmHg 77%
    20:00 +4°C° 0.1 mm 6 mps 759 mmHg 77%
    21:00 +4°C° 0.1 mm 6 mps 759 mmHg 78%
    22:00 +5°C° 0.1 mm 6 mps 759 mmHg 78%
    23:00 +5°C° 0.3 mm 6 mps 759 mmHg 79%

    Mañana, 14 Diciembre, Viernes

    Tiempo Temperatura Precipitaciones Viento Presión Humedad
    00:00 +5°C° 0.3 mm 6 mps 759 mmHg 80%
    01:00 +7°C° 0.3 mm 6 mps 759 mmHg 82%
    02:00 +7°C° 0.3 mm 5 mps 759 mmHg 83%
    03:00 +7°C° 0.3 mm 5 mps 759 mmHg 84%
    04:00 +7°C° 0.3 mm 5 mps 759 mmHg 85%
    05:00 +8°C° 0.2 mm 5 mps 759 mmHg 86%
    06:00 +8°C° 0.2 mm 6 mps 759 mmHg 86%
    07:00 +8°C° 0.2 mm 6 mps 758 mmHg 87%
    08:00 +9°C° 0.1 mm 6 mps 759 mmHg 84%
    09:00 +11°C° 0.1 mm 6 mps 759 mmHg 81%
    10:00 +12°C° 0.1 mm 7 mps 759 mmHg 78%
    11:00 +14°C° 0.1 mm 7 mps 758 mmHg 76%
    12:00 +15°C° 0.1 mm 7 mps 758 mmHg 75%
    13:00 +15°C° 0.1 mm 7 mps 758 mmHg 73%
    14:00 +15°C° 0.2 mm 7 mps 758 mmHg 76%
    15:00 +14°C° 0.2 mm 7 mps 758 mmHg 80%
    16:00 +13°C° 0.2 mm 6 mps 758 mmHg 83%
    17:00 +11°C° 0.2 mm 6 mps 758 mmHg 83%
    18:00 +11°C° 0.2 mm 6 mps 758 mmHg 84%
    19:00 +10°C° 0.2 mm 6 mps 758 mmHg 84%
    20:00 +10°C° 0.1 mm 6 mps 758 mmHg 83%
    21:00 +10°C° 0.1 mm 6 mps 758 mmHg 82%
    22:00 +9°C° 0.1 mm 6 mps 758 mmHg 81%
    23:00 +9°C° 0 mm 6 mps 758 mmHg 80%

    Pasado mañana, 15 Diciembre, Sábado

    Tiempo Temperatura Precipitaciones Viento Presión Humedad
    00:00 +9°C° 0 mm 6 mps 758 mmHg 79%
    01:00 +9°C° 0 mm 6 mps 758 mmHg 78%
    02:00 +9°C° 0 mm 6 mps 757 mmHg 79%
    03:00 +9°C° 0 mm 6 mps 757 mmHg 79%
    04:00 +9°C° 0 mm 6 mps 757 mmHg 79%
    05:00 +9°C° 0.2 mm 6 mps 757 mmHg 79%
    06:00 +10°C° 0.2 mm 6 mps 757 mmHg 80%
    07:00 +10°C° 0.2 mm 7 mps 757 mmHg 81%
    08:00 +10°C° 0.6 mm 6 mps 757 mmHg 80%
    09:00 +11°C° 0.6 mm 6 mps 757 mmHg 79%
    10:00 +11°C° 0.6 mm 6 mps 758 mmHg 78%
    11:00 +14°C° 0.5 mm 6 mps 757 mmHg 73%
    12:00 +15°C° 0.5 mm 6 mps 757 mmHg 68%
    13:00 +16°C° 0.5 mm 5 mps 757 mmHg 64%
    14:00 +15°C° 1 mm 5 mps 757 mmHg 68%
    15:00 +14°C° 1 mm 5 mps 757 mmHg 72%
    16:00 +13°C° 1 mm 4 mps 757 mmHg 76%
    17:00 +13°C° 1.6 mm 4 mps 757 mmHg 78%
    18:00 +12°C° 1.6 mm 3 mps 757 mmHg 81%
    19:00 +11°C° 1.6 mm 3 mps 757 mmHg 83%
    20:00 +11°C° 2.4 mm 3 mps 757 mmHg 83%
    21:00 +11°C° 2.4 mm 4 mps 757 mmHg 83%
    22:00 +11°C° 2.4 mm 4 mps 757 mmHg 83%
    23:00 +10°C° 2.3 mm 4 mps 757 mmHg 86%

    16 Diciembre, Domingo

    Tiempo Temperatura Precipitaciones Viento Presión Humedad
    00:00 +9°C° 2.3 mm 5 mps 757 mmHg 88%
    01:00 +9°C° 2.3 mm 5 mps 757 mmHg 90%
    02:00 +9°C° 1.8 mm 5 mps 757 mmHg 92%
    03:00 +9°C° 1.8 mm 6 mps 757 mmHg 94%
    04:00 +8°C° 1.8 mm 6 mps 757 mmHg 96%
    05:00 +8°C° 1 mm 5 mps 758 mmHg 95%
    06:00 +8°C° 1 mm 5 mps 758 mmHg 95%
    07:00 +8°C° 1 mm 5 mps 758 mmHg 94%
    08:00 +8°C° 0.2 mm 4 mps 758 mmHg 91%
    09:00 +8°C° 0.2 mm 4 mps 759 mmHg 88%
    10:00 +8°C° 0.2 mm 4 mps 759 mmHg 84%
    11:00 +10°C° 0.1 mm 4 mps 759 mmHg 81%
    12:00 +10°C° 0.1 mm 4 mps 759 mmHg 79%
    13:00 +9°C° 0.1 mm 5 mps 759 mmHg 76%
    14:00 +10°C° 0 mm 4 mps 759 mmHg 78%
    15:00 +8°C° 0 mm 4 mps 760 mmHg 79%
    16:00 +8°C° 0 mm 4 mps 760 mmHg 81%
    17:00 +9°C° 0 mm 3 mps 760 mmHg 82%
    18:00 +8°C° 0 mm 3 mps 761 mmHg 84%
    19:00 +8°C° 0 mm 3 mps 762 mmHg 86%
    20:00 +7°C° 0 mm 3 mps 762 mmHg 86%
    21:00 +7°C° 0 mm 3 mps 762 mmHg 86%
    22:00 +7°C° 0 mm 3 mps 762 mmHg 86%
    23:00 +7°C° 0 mm 2 mps 763 mmHg 85%

    17 Diciembre, Lunes

    Tiempo Temperatura Precipitaciones Viento Presión Humedad
    00:00 +7°C° 0 mm 2 mps 763 mmHg 85%
    01:00 +7°C° 0 mm 2 mps 763 mmHg 85%
    02:00 +7°C° 0 mm 2 mps 763 mmHg 84%
    03:00 +7°C° 0 mm 2 mps 762 mmHg 83%
    04:00 +7°C° 0 mm 2 mps 762 mmHg 82%
    05:00 +7°C° 0 mm 2 mps 763 mmHg 82%
    06:00 +7°C° 0 mm 2 mps 763 mmHg 81%
    07:00 +9°C° 0 mm 1 mps 763 mmHg 80%
    08:00 +10°C° 0 mm 1 mps 763 mmHg 77%
    09:00 +11°C° 0 mm 1 mps 763 mmHg 73%
    10:00 +12°C° 0 mm 1 mps 763 mmHg 70%
    11:00 +12°C° 0 mm 1 mps 763 mmHg 67%
    12:00 +13°C° 0 mm 1 mps 763 mmHg 65%
    13:00 +14°C° 0 mm 1 mps 763 mmHg 62%
    14:00 +13°C° 0 mm 1 mps 763 mmHg 65%
    15:00 +11°C° 0 mm 0 mps 763 mmHg 69%
    16:00 +10°C° 0 mm 0 mps 763 mmHg 73%
    17:00 +10°C° 0.3 mm 0 mps 763 mmHg 74%
    18:00 +11°C° 0.3 mm 1 mps 763 mmHg 76%
    19:00 +10°C° 0.3 mm 1 mps 763 mmHg 77%
    20:00 +10°C° 0.2 mm 1 mps 763 mmHg 78%
    21:00 +9°C° 0.2 mm 2 mps 763 mmHg 80%
    22:00 +9°C° 0.2 mm 2 mps 763 mmHg 81%
    23:00 +9°C° 0.1 mm 2 mps 763 mmHg 81%

    18 Diciembre, Martes

    Tiempo Temperatura Precipitaciones Viento Presión Humedad
    00:00 +9°C° 0.1 mm 2 mps 763 mmHg 81%
    01:00 +9°C° 0.1 mm 2 mps 763 mmHg 81%
    02:00 +9°C° 0.5 mm 2 mps 762 mmHg 82%
    03:00 +9°C° 0.5 mm 3 mps 762 mmHg 82%
    04:00 +9°C° 0.5 mm 3 mps 762 mmHg 82%
    05:00 +8°C° 0.4 mm 4 mps 762 mmHg 83%
    06:00 +8°C° 0.4 mm 4 mps 762 mmHg 83%
    07:00 +8°C° 0.4 mm 5 mps 762 mmHg 84%
    08:00 +8°C° 0.1 mm 5 mps 762 mmHg 82%
    09:00 +9°C° 0.1 mm 5 mps 763 mmHg 80%
    10:00 +9°C° 0.1 mm 5 mps 763 mmHg 78%
    11:00 +9°C° 0.1 mm 5 mps 763 mmHg 76%
    12:00 +9°C° 0.1 mm 5 mps 763 mmHg 75%
    13:00 +10°C° 0.1 mm 5 mps 762 mmHg 73%
    14:00 +9°C° 0.1 mm 5 mps 763 mmHg 74%
    15:00 +9°C° 0.1 mm 6 mps 763 mmHg 75%
    16:00 +8°C° 0.1 mm 6 mps 763 mmHg 76%
    17:00 +7°C° 0 mm 6 mps 764 mmHg 77%
    18:00 +5°C° 0 mm 6 mps 764 mmHg 78%
    19:00 +5°C° 0 mm 6 mps 765 mmHg 79%
    20:00 +4°C° 0 mm 6 mps 765 mmHg 79%
    21:00 +5°C° 0 mm 5 mps 766 mmHg 78%
    22:00 +5°C° 0 mm 5 mps 766 mmHg 78%
    23:00 +3°C° 0 mm 5 mps 766 mmHg 77%
    Mostrar más